Time,TemperatureF,DewpointF,PressureIn,WindDirection,WindDirectionDegrees,WindSpeedMPH,WindSpeedGustMPH,Humidity,HourlyPrecipIn,Conditions,Clouds,dailyrainin,SoftwareType,DateUTC
2013-01-30 00:00:00,36.6,35.8,30.03,SE,126,0.0,2.0,97,0.00,,,0.08,Wunderground v.1.15,2013-01-30 05:00:00,
2013-01-30 00:03:00,36.6,35.8,30.03,SE,126,2.0,2.0,97,0.00,,,0.08,Wunderground v.1.15,2013-01-30 05:03:00,
2013-01-30 00:08:00,36.6,35.8,30.02,SE,131,2.0,3.0,97,0.00,,,0.08,Wunderground v.1.15,2013-01-30 05:08:00,
2013-01-30 00:14:00,36.5,35.7,30.03,SSE,148,0.0,2.0,97,0.00,,,0.08,Wunderground v.1.15,2013-01-30 05:14:00,
2013-01-30 00:20:00,36.5,35.7,30.02,SE,136,0.0,2.0,97,0.00,,,0.08,Wunderground v.1.15,2013-01-30 05:20:00,
2013-01-30 00:26:00,36.6,35.8,30.02,SSE,150,0.0,3.0,97,0.00,,,0.08,Wunderground v.1.15,2013-01-30 05:26:00,
2013-01-30 00:32:00,36.6,35.8,30.02,SSE,147,1.0,2.0,97,0.00,,,0.08,Wunderground v.1.15,2013-01-30 05:32:00,
2013-01-30 00:38:00,36.6,35.8,30.02,SSE,150,0.0,2.0,97,0.00,,,0.08,Wunderground v.1.15,2013-01-30 05:38:00,
2013-01-30 00:44:00,36.7,35.9,30.01,SSE,150,0.0,1.0,97,0.00,,,0.08,Wunderground v.1.15,2013-01-30 05:44:00,
2013-01-30 00:50:00,36.8,36.0,30.01,SSE,150,0.0,0.0,97,0.00,,,0.08,Wunderground v.1.15,2013-01-30 05:50:00,
2013-01-30 00:55:00,36.8,36.0,30.01,SSE,149,0.0,0.0,97,0.00,,,0.08,Wunderground v.1.15,2013-01-30 05:55:00,
2013-01-30 01:02:00,36.9,36.1,30.01,SSE,149,0.0,0.0,97,0.00,,,0.08,Wunderground v.1.15,2013-01-30 06:02:00,
2013-01-30 01:07:00,36.9,36.1,30.00,SSE,149,0.0,0.0,97,0.00,,,0.08,Wunderground v.1.15,2013-01-30 06:07:00,
2013-01-30 01:13:00,36.9,36.1,30.00,ENE,71,0.0,0.0,97,0.00,,,0.08,Wunderground v.1.15,2013-01-30 06:13:00,
2013-01-30 01:19:00,36.8,36.0,30.00,East,96,0.0,0.0,97,0.00,,,0.08,Wunderground v.1.15,2013-01-30 06:19:00,
2013-01-30 01:25:00,36.7,35.9,30.00,East,96,0.0,0.0,97,0.00,,,0.08,Wunderground v.1.15,2013-01-30 06:25:00,
2013-01-30 01:31:00,36.6,35.8,29.99,East,82,0.0,0.0,97,0.00,,,0.08,Wunderground v.1.15,2013-01-30 06:31:00,
2013-01-30 01:36:00,36.6,35.8,29.99,East,79,0.0,0.0,97,0.00,,,0.08,Wunderground v.1.15,2013-01-30 06:36:00,
2013-01-30 01:42:00,36.6,35.8,29.99,ENE,77,0.0,0.0,97,0.00,,,0.08,Wunderground v.1.15,2013-01-30 06:42:00,
2013-01-30 01:48:00,36.7,35.9,29.99,ENE,78,0.0,0.0,97,0.00,,,0.08,Wunderground v.1.15,2013-01-30 06:48:00,
2013-01-30 01:54:00,36.7,35.9,29.98,East,92,0.0,0.0,97,0.00,,,0.08,Wunderground v.1.15,2013-01-30 06:54:00,
2013-01-30 02:00:00,36.8,36.0,29.98,ESE,120,1.0,1.0,97,0.00,,,0.08,Wunderground v.1.15,2013-01-30 07:00:00,
2013-01-30 02:05:00,37.0,36.2,29.97,ESE,103,4.0,4.0,97,0.00,,,0.08,Wunderground v.1.15,2013-01-30 07:05:00,
2013-01-30 02:10:00,37.0,36.2,29.96,ESE,108,3.0,3.0,97,0.00,,,0.08,Wunderground v.1.15,2013-01-30 07:10:00,
2013-01-30 02:15:00,37.2,36.4,29.97,ESE,110,2.0,4.0,97,0.00,,,0.08,Wunderground v.1.15,2013-01-30 07:15:00,
2013-01-30 02:20:00,37.3,36.5,29.96,ESE,109,2.0,2.0,97,0.00,,,0.08,Wunderground v.1.15,2013-01-30 07:20:00,
2013-01-30 02:25:00,37.3,36.5,29.97,ESE,115,0.0,2.0,97,0.00,,,0.08,Wunderground v.1.15,2013-01-30 07:25:00,
2013-01-30 02:30:00,37.3,36.5,29.96,ESE,115,0.0,0.0,97,0.00,,,0.08,Wunderground v.1.15,2013-01-30 07:30:00,
2013-01-30 02:35:00,37.1,36.3,29.95,East,85,3.0,3.0,97,0.00,,,0.08,Wunderground v.1.15,2013-01-30 07:35:00,
2013-01-30 02:40:00,36.9,36.1,29.95,East,89,1.0,2.0,97,0.00,,,0.08,Wunderground v.1.15,2013-01-30 07:40:00,
2013-01-30 02:45:00,36.7,35.9,29.95,East,79,0.0,2.0,97,0.00,,,0.08,Wunderground v.1.15,2013-01-30 07:45:00,
2013-01-30 02:50:00,36.7,35.9,29.94,ENE,76,0.0,1.0,97,0.00,,,0.08,Wunderground v.1.15,2013-01-30 07:50:00,
2013-01-30 02:55:00,36.9,36.1,29.95,ENE,76,0.0,1.0,97,0.00,,,0.08,Wunderground v.1.15,2013-01-30 07:55:00,
2013-01-30 03:00:00,37.2,36.4,29.95,SE,130,0.0,0.0,97,0.00,,,0.08,Wunderground v.1.15,2013-01-30 08:00:00,
2013-01-30 03:05:00,37.4,36.6,29.94,SE,130,0.0,0.0,97,0.00,,,0.08,Wunderground v.1.15,2013-01-30 08:05:00,
2013-01-30 03:10:00,37.3,36.5,29.93,SE,130,0.0,0.0,97,0.00,,,0.08,Wunderground v.1.15,2013-01-30 08:10:00,
2013-01-30 03:15:00,37.3,36.5,29.93,SE,130,3.0,3.0,97,0.00,,,0.08,Wunderground v.1.15,2013-01-30 08:15:00,
2013-01-30 03:20:00,37.2,36.4,29.93,ESE,103,2.0,3.0,97,0.00,,,0.08,Wunderground v.1.15,2013-01-30 08:20:00,
2013-01-30 03:25:00,37.1,36.3,29.92,ESE,107,2.0,3.0,97,0.00,,,0.08,Wunderground v.1.15,2013-01-30 08:25:00,
2013-01-30 03:30:00,37.1,36.3,29.92,ESE,118,2.0,3.0,97,0.00,,,0.08,Wunderground v.1.15,2013-01-30 08:30:00,
2013-01-30 03:35:00,37.1,36.3,29.92,SE,126,1.0,3.0,97,0.00,,,0.08,Wunderground v.1.15,2013-01-30 08:35:00,
2013-01-30 03:41:00,37.2,36.4,29.91,ESE,108,2.0,4.0,97,0.00,,,0.08,Wunderground v.1.15,2013-01-30 08:41:00,
2013-01-30 03:46:00,37.1,36.3,29.91,ESE,108,0.0,4.0,97,0.00,,,0.08,Wunderground v.1.15,2013-01-30 08:46:00,
2013-01-30 03:50:00,37.1,36.3,29.91,ESE,108,0.0,1.0,97,0.00,,,0.08,Wunderground v.1.15,2013-01-30 08:50:00,
2013-01-30 03:56:00,37.1,36.3,29.91,ESE,108,0.0,1.0,97,0.00,,,0.08,Wunderground v.1.15,2013-01-30 08:56:00,
2013-01-30 04:00:00,37.3,36.5,29.90,ESE,108,0.0,0.0,97,0.00,,,0.08,Wunderground v.1.15,2013-01-30 09:00:00,
2013-01-30 04:06:00,37.5,36.7,29.90,ESE,108,0.0,0.0,97,0.00,,,0.08,Wunderground v.1.15,2013-01-30 09:06:00,
2013-01-30 04:10:00,37.8,37.0,29.89,ESE,109,0.0,0.0,97,0.00,,,0.08,Wunderground v.1.15,2013-01-30 09:10:00,
2013-01-30 04:15:00,38.2,37.7,29.89,SE,124,1.0,4.0,98,0.00,,,0.08,Wunderground v.1.15,2013-01-30 09:15:00,
2013-01-30 04:20:00,38.3,37.8,29.88,ESE,122,3.0,3.0,98,0.00,,,0.08,Wunderground v.1.15,2013-01-30 09:20:00,
2013-01-30 04:26:00,38.4,37.6,29.88,SE,126,1.0,4.0,97,0.00,,,0.08,Wunderground v.1.15,2013-01-30 09:26:00,
2013-01-30 04:31:00,38.4,37.6,29.88,SE,141,2.0,2.0,97,0.00,,,0.08,Wunderground v.1.15,2013-01-30 09:31:00,
2013-01-30 04:36:00,38.4,37.6,29.88,SE,141,0.0,3.0,97,0.00,,,0.08,Wunderground v.1.15,2013-01-30 09:36:00,
2013-01-30 04:41:00,38.5,37.7,29.88,SE,141,0.0,1.0,97,0.00,,,0.08,Wunderground v.1.15,2013-01-30 09:41:00,
2013-01-30 04:46:00,38.8,38.3,29.88,SSE,166,0.0,3.0,98,0.00,,,0.08,Wunderground v.1.15,2013-01-30 09:46:00,
2013-01-30 04:50:00,38.9,38.4,29.88,SSE,166,0.0,0.0,98,0.00,,,0.08,Wunderground v.1.15,2013-01-30 09:50:00,
2013-01-30 04:55:00,39.1,38.6,29.87,SSE,165,0.0,3.0,98,0.00,,,0.08,Wunderground v.1.15,2013-01-30 09:55:00,
2013-01-30 05:00:00,39.2,38.7,29.87,SSE,165,0.0,0.0,98,0.00,,,0.08,Wunderground v.1.15,2013-01-30 10:00:00,
2013-01-30 05:06:00,39.2,38.4,29.86,SSE,165,0.0,0.0,97,0.00,,,0.08,Wunderground v.1.15,2013-01-30 10:06:00,
2013-01-30 05:11:00,39.3,38.5,29.86,SSE,165,0.0,0.0,97,0.00,,,0.08,Wunderground v.1.15,2013-01-30 10:11:00,
2013-01-30 05:16:00,39.4,38.9,29.87,SSE,165,0.0,0.0,98,0.00,,,0.08,Wunderground v.1.15,2013-01-30 10:16:00,
2013-01-30 05:21:00,39.5,39.0,29.87,SSE,165,0.0,0.0,98,0.00,,,0.08,Wunderground v.1.15,2013-01-30 10:21:00,
2013-01-30 05:26:00,39.7,39.2,29.87,SSE,165,0.0,0.0,98,0.00,,,0.08,Wunderground v.1.15,2013-01-30 10:26:00,
2013-01-30 05:31:00,39.8,39.3,29.87,SSE,165,0.0,0.0,98,0.00,,,0.08,Wunderground v.1.15,2013-01-30 10:31:00,
2013-01-30 05:36:00,39.9,39.4,29.87,SSE,165,0.0,0.0,98,0.00,,,0.08,Wunderground v.1.15,2013-01-30 10:36:00,
2013-01-30 05:41:00,40.0,39.5,29.87,SSE,165,0.0,0.0,98,0.00,,,0.08,Wunderground v.1.15,2013-01-30 10:41:00,
2013-01-30 05:46:00,40.0,39.5,29.87,SSE,165,0.0,0.0,98,0.00,,,0.08,Wunderground v.1.15,2013-01-30 10:46:00,
2013-01-30 05:51:00,40.0,39.5,29.87,SSE,165,0.0,0.0,98,0.00,,,0.08,Wunderground v.1.15,2013-01-30 10:51:00,
2013-01-30 05:56:00,40.0,39.5,29.87,SSE,165,0.0,0.0,98,0.00,,,0.08,Wunderground v.1.15,2013-01-30 10:56:00,
2013-01-30 06:01:00,40.0,39.5,29.87,SSE,165,0.0,0.0,98,0.00,,,0.08,Wunderground v.1.15,2013-01-30 11:01:00,
2013-01-30 06:06:00,39.9,39.4,29.86,SSE,165,0.0,0.0,98,0.00,,,0.08,Wunderground v.1.15,2013-01-30 11:06:00,
2013-01-30 06:11:00,39.8,39.3,29.85,SSE,165,0.0,0.0,98,0.00,,,0.08,Wunderground v.1.15,2013-01-30 11:11:00,
2013-01-30 06:16:00,39.8,39.3,29.85,SSE,165,0.0,0.0,98,0.00,,,0.08,Wunderground v.1.15,2013-01-30 11:16:00,
2013-01-30 06:21:00,39.8,39.3,29.85,SSE,165,0.0,0.0,98,0.00,,,0.08,Wunderground v.1.15,2013-01-30 11:21:00,
2013-01-30 06:26:00,39.8,39.3,29.85,SSE,165,0.0,2.0,98,0.00,,,0.09,Wunderground v.1.15,2013-01-30 11:26:00,
2013-01-30 06:31:00,39.7,38.9,29.85,SSE,165,0.0,0.0,97,0.00,,,0.09,Wunderground v.1.15,2013-01-30 11:31:00,
2013-01-30 06:36:00,39.6,38.8,29.84,SSE,165,0.0,0.0,97,0.00,,,0.09,Wunderground v.1.15,2013-01-30 11:36:00,
2013-01-30 06:41:00,39.4,38.6,29.84,SSE,165,0.0,0.0,97,0.00,,,0.09,Wunderground v.1.15,2013-01-30 11:41:00,
2013-01-30 06:46:00,39.5,38.7,29.83,ESE,112,1.0,3.0,97,0.00,,,0.09,Wunderground v.1.15,2013-01-30 11:46:00,
2013-01-30 06:51:00,39.7,38.9,29.82,ESE,107,3.0,3.0,97,0.00,,,0.09,Wunderground v.1.15,2013-01-30 11:51:00,
2013-01-30 06:56:00,39.9,39.4,29.82,East,96,3.0,6.0,98,0.00,,,0.09,Wunderground v.1.15,2013-01-30 11:56:00,
2013-01-30 07:01:00,40.5,40.0,29.82,ESE,107,3.0,4.0,98,0.00,,,0.09,Wunderground v.1.15,2013-01-30 12:01:00,
2013-01-30 07:06:00,41.1,41.1,29.82,ESE,111,4.0,5.0,100,0.00,,,0.09,Wunderground v.1.15,2013-01-30 12:06:00,
2013-01-30 07:11:00,41.5,41.0,29.82,ESE,105,3.0,4.0,98,0.00,,,0.09,Wunderground v.1.15,2013-01-30 12:11:00,
2013-01-30 07:16:00,41.7,41.2,29.82,ESE,115,4.0,4.0,98,0.00,,,0.09,Wunderground v.1.15,2013-01-30 12:16:00,
2013-01-30 07:21:00,41.9,41.4,29.81,ESE,121,2.0,4.0,98,0.00,,,0.09,Wunderground v.1.15,2013-01-30 12:21:00,
2013-01-30 07:26:00,42.2,41.7,29.81,SE,137,2.0,7.0,98,0.00,,,0.09,Wunderground v.1.15,2013-01-30 12:26:00,
2013-01-30 07:31:00,42.2,41.7,29.81,ESE,117,3.0,4.0,98,0.00,,,0.09,Wunderground v.1.15,2013-01-30 12:31:00,
2013-01-30 07:36:00,42.2,41.7,29.81,ESE,119,3.0,5.0,98,0.00,,,0.09,Wunderground v.1.15,2013-01-30 12:36:00,
2013-01-30 07:41:00,42.5,42.0,29.81,SE,140,3.0,6.0,98,0.00,,,0.09,Wunderground v.1.15,2013-01-30 12:41:00,
2013-01-30 07:46:00,42.7,42.2,29.81,SE,146,2.0,6.0,98,0.00,,,0.09,Wunderground v.1.15,2013-01-30 12:46:00,
2013-01-30 07:51:00,42.6,42.1,29.80,SE,137,0.0,4.0,98,0.00,,,0.09,Wunderground v.1.15,2013-01-30 12:51:00,
2013-01-30 07:56:00,42.5,42.0,29.80,SE,135,2.0,5.0,98,0.00,,,0.09,Wunderground v.1.15,2013-01-30 12:56:00,
2013-01-30 08:02:00,42.6,42.1,29.79,SE,136,4.0,5.0,98,0.00,,,0.09,Wunderground v.1.15,2013-01-30 13:02:00,
2013-01-30 08:07:00,42.7,42.2,29.80,SSE,148,2.0,6.0,98,0.00,,,0.09,Wunderground v.1.15,2013-01-30 13:07:00,
2013-01-30 08:12:00,42.7,42.2,29.79,SE,143,4.0,6.0,98,0.00,,,0.09,Wunderground v.1.15,2013-01-30 13:12:00,
2013-01-30 08:17:00,42.7,42.2,29.79,SSE,155,3.0,6.0,98,0.00,,,0.09,Wunderground v.1.15,2013-01-30 13:17:00,
2013-01-30 08:22:00,42.9,42.4,29.79,SSE,154,4.0,5.0,98,0.00,,,0.09,Wunderground v.1.15,2013-01-30 13:22:00,
2013-01-30 08:27:00,42.9,42.4,29.78,SE,144,4.0,5.0,98,0.00,,,0.09,Wunderground v.1.15,2013-01-30 13:27:00,
2013-01-30 08:32:00,43.1,42.6,29.78,SSE,165,4.0,6.0,98,0.00,,,0.09,Wunderground v.1.15,2013-01-30 13:32:00,
2013-01-30 08:37:00,43.3,42.8,29.78,SSE,165,1.0,7.0,98,0.00,,,0.09,Wunderground v.1.15,2013-01-30 13:37:00,
2013-01-30 08:42:00,43.5,43.0,29.77,SSE,166,5.0,6.0,98,0.00,,,0.09,Wunderground v.1.15,2013-01-30 13:42:00,
2013-01-30 08:47:00,43.6,43.1,29.77,SSE,161,4.0,6.0,98,0.00,,,0.09,Wunderground v.1.15,2013-01-30 13:47:00,
2013-01-30 08:52:00,43.7,43.2,29.77,SSE,153,3.0,4.0,98,0.00,,,0.09,Wunderground v.1.15,2013-01-30 13:52:00,
2013-01-30 08:57:00,44.0,43.5,29.76,SSE,161,4.0,9.0,98,0.00,,,0.09,Wunderground v.1.15,2013-01-30 13:57:00,
2013-01-30 09:02:00,44.2,43.7,29.76,South,169,6.0,8.0,98,0.00,,,0.09,Wunderground v.1.15,2013-01-30 14:02:00,
2013-01-30 09:07:00,44.5,44.0,29.77,South,175,8.0,9.0,98,0.00,,,0.09,Wunderground v.1.15,2013-01-30 14:07:00,
2013-01-30 09:12:00,44.6,44.1,29.77,South,175,5.0,8.0,98,0.00,,,0.09,Wunderground v.1.15,2013-01-30 14:12:00,
2013-01-30 09:17:00,44.7,44.2,29.76,SE,146,8.0,9.0,98,0.00,,,0.09,Wunderground v.1.15,2013-01-30 14:17:00,
2013-01-30 09:22:00,45.0,44.5,29.75,South,170,7.0,9.0,98,0.00,,,0.09,Wunderground v.1.15,2013-01-30 14:22:00,
2013-01-30 09:27:00,45.3,44.8,29.75,SSE,166,4.0,12.0,98,0.00,,,0.09,Wunderground v.1.15,2013-01-30 14:27:00,
2013-01-30 09:32:00,45.5,45.0,29.75,SSE,165,5.0,10.0,98,0.00,,,0.09,Wunderground v.1.15,2013-01-30 14:32:00,
2013-01-30 09:37:00,45.6,45.1,29.75,SSE,162,8.0,12.0,98,0.00,,,0.09,Wunderground v.1.15,2013-01-30 14:37:00,
2013-01-30 09:42:00,45.7,45.2,29.74,SE,134,7.0,10.0,98,0.00,,,0.09,Wunderground v.1.15,2013-01-30 14:42:00,
2013-01-30 09:47:00,45.9,45.4,29.74,South,182,10.0,10.0,98,0.00,,,0.09,Wunderground v.1.15,2013-01-30 14:47:00,
2013-01-30 09:52:00,46.2,45.7,29.73,SSE,161,7.0,10.0,98,0.00,,,0.09,Wunderground v.1.15,2013-01-30 14:52:00,
2013-01-30 09:57:00,46.4,45.9,29.73,South,173,4.0,10.0,98,0.00,,,0.09,Wunderground v.1.15,2013-01-30 14:57:00,
2013-01-30 10:02:00,46.8,46.3,29.73,SSE,161,6.0,10.0,98,0.00,,,0.09,Wunderground v.1.15,2013-01-30 15:02:00,
2013-01-30 10:07:00,47.1,46.6,29.72,SE,128,5.0,11.0,98,0.00,,,0.09,Wunderground v.1.15,2013-01-30 15:07:00,